Regional Weather Roundup
Issued by NWS

Home | Current Version | Previous Version | Graphics & Text | Print | Product List | Glossary On
Versions: 1 2 3 4 5 6 7 8 9 10 11 12 13 14 15 16 17 18 19 20 21 22 23 24 25 26 27 28 29 30 31 32 33 34 35 36 37 38 39 40 41 42 43 44 45 46 47 48 49 50
000
ASUS45 KSLC 040010
RWRUT

UTAH REGIONAL WEATHER ROUNDUP
NATIONAL WEATHER SERVICE SALT LAKE CITY UT
600 PM MDT FRI JUL 03 2015

UTZ001>011-023>025-040100-

NORTHERN UTAH

CITY           SKY/WX    TMP DP  RH WIND       PRES   REMARKS
BRIGHAM CITY   MOSUNNY   97  31  10 S3        29.91F HX  91
HILL AFB       SUNNY     95  41  15 W7        29.97F HX  91
LOGAN          SUNNY     95  40  14 S3        29.92F HX  91
OGDEN          SUNNY     96  37  12 SW6       29.93F HX  91
PROVO AIRPORT  MOSUNNY   95  48  20 NW14      29.93F HX  91
SALT LAKE CITY PTSUNNY   97  43  15 VRB3      29.90F HX  93
VERNAL         MOSUNNY   93  39  15 SW6       29.96F
WENDOVER       PTSUNNY   97  43  15 E8        29.91F HX  92
HEBER CITY     SUNNY     91  37  15 N7        30.03F
WEST JORDAN    SUNNY     97  43  15 CALM      29.96F HX  92

$$

UTZ012>022-026-027-040100-

SOUTHERN/CENTRAL UTAH

CITY           SKY/WX    TMP DP  RH WIND       PRES   REMARKS
BLANDING       CLOUDY    80  48  32 N3        30.13F
BRYCE CANYON   CLOUDY    81  46  29 W13       30.22F
CEDAR CITY     CLOUDY    88  38  17 SW9       30.05F
DELTA          MOSUNNY   97  34  11 W12       29.94F HX  92
HANKSVILLE     SUNNY    100  39  12 SW6       29.89F HX  95
MILFORD        CLOUDY    96  38  13 N10       29.99F HX  91
MOAB/CYNLANDS  SUNNY     99  37  11 MISG      29.86F HX  94
PRICE          SUNNY     97  29   9 W12G24    30.01F HX  91
ST GEORGE      CLEAR     91  59  33 NW3       29.85F HX  90
KANAB          CLOUDY    84  54  34 S18       30.08S

$$

REGIONAL REPORTS     COLORADO/ARIZONA

CITY           SKY/WX    TMP DP  RH WIND       PRES   REMARKS
CRAIG, CO      SUNNY     90  35  14 VRB3      30.05F
GRAND JUNCTION MOSUNNY   95  43  16 W10       29.91F HX  91
RIFLE          MOSUNNY   91  43  18 VRB5      29.99F
MONTROSE       CLOUDY    82  47  29 E6        30.07S
CORTEZ         SUNNY     87  49  26 NW7       30.08S
PAGE, AZ       MOSUNNY   97  38  13 N3        29.91F HX  92
GRAND CANYON     N/A     76  50  40 NW9G17      N/A
KINGMAN        MOSUNNY   99  44  15 SW17      29.91F HX  95
FLAGSTAFF      PTSUNNY   81  49  32 VRB5      30.17F

$$

REGIONAL REPORTS    NEVADA/IDAHO/WYOMING

CITY           SKY/WX    TMP DP  RH WIND       PRES   REMARKS
LAS VEGAS, NV  MOSUNNY  108  43  11 SW9       29.71F HX 103
ELY            MOSUNNY   88  44  21 CALM      30.10F
ELKO           MOSUNNY   93  41  16 W8        29.99F
POCATELLO, ID  SUNNY     96  43  16 SW18      29.91F HX  92
BURLEY         PTSUNNY   90  52  27 W9        29.89F
EVANSTON, WY   CLOUDY    86  36  16 NW9G24    30.16F
ROCK SPRINGS   MOSUNNY   86  31  13 W5        30.10F
KEMMERER       MOSUNNY  N/A N/A N/A NW16G23   30.17F

$$


USA.gov is the U.S. government's official web portal to all federal, state and local government web resources and services.